This is the latest recevied weather packets stored in our database for station/object IU5GBO-13. If no packets are shown the sender has not sent any weather packets the latest 10 day(s).
| Time | Temp. | Humidity | Pressure | Rain* | Wind** | Luminosity | Snow |
|---|---|---|---|---|---|---|---|
| 1777893977 | 21.67° C | 51% | 1020.1 hPa | - | - | - | - |
| 1777893377 | 21.67° C | 52% | 1020.1 hPa | - | - | - | - |
| 1777892777 | 21.11° C | 52% | 1020.3 hPa | - | - | - | - |
| 1777892177 | 21.67° C | 51% | 1020.3 hPa | - | - | - | - |
| 1777891577 | 21.67° C | 51% | 1020.3 hPa | - | - | - | - |
| 1777890977 | 21.67° C | 51% | 1020.4 hPa | - | - | - | - |
| 1777890377 | 21.11° C | 52% | 1020.4 hPa | - | - | - | - |
| 1777889778 | 21.11° C | 54% | 1020.5 hPa | - | - | - | - |
| 1777889177 | 20.56° C | 53% | 1020.6 hPa | - | - | - | - |
| 1777888577 | 20° C | 57% | 1020.7 hPa | - | - | - | - |
| 1777887977 | 20° C | 56% | 1020.7 hPa | - | - | - | - |
| 1777887377 | 20° C | 57% | 1020.7 hPa | - | - | - | - |
| 1777886778 | 19.44° C | 59% | 1020.8 hPa | - | - | - | - |
| 1777886177 | 19.44° C | 58% | 1020.8 hPa | - | - | - | - |
| 1777885578 | 19.44° C | 57% | 1020.7 hPa | - | - | - | - |
| 1777884977 | 20° C | 58% | 1020.8 hPa | - | - | - | - |
| 1777884377 | 18.89° C | 61% | 1020.8 hPa | - | - | - | - |
| 1777883777 | 18.89° C | 61% | 1020.8 hPa | - | - | - | - |
| 1777883177 | 18.89° C | 61% | 1020.8 hPa | - | - | - | - |
| 1777882577 | 18.89° C | 60% | 1020.7 hPa | - | - | - | - |
| 1777881977 | 18.89° C | 60% | 1020.8 hPa | - | - | - | - |
| 1777881377 | 18.89° C | 61% | 1020.6 hPa | - | - | - | - |
| 1777880777 | 18.33° C | 61% | 1020.6 hPa | - | - | - | - |
| 1777880177 | 18.33° C | 63% | 1020.5 hPa | - | - | - | - |
| 1777879577 | 17.78° C | 64% | 1020.5 hPa | - | - | - | - |
* Rain since midnight (hover to see other rain measurements)
** Current wind speed in m/s (hover to see current wind gust speed)